QPF
0.00 0.03 0.07 0.05 0.00 0.00 0.00 0.00 0.00 0.00 0.00 0.00 0.00 0.00 0.00 0.00 0.00 0.00 0.00 0.00 0.00 0.00 0.00 0.00 0.02 0.01 0.03 0.04 0.02 0.00 0.00 0.00 0.01 0.00 0.01 0.01 0.01 0.00 0.01 0.01 0.00 0.00 0.00
0.00 0.01 0.04 0.01 0.00 0.00 0.00 0.00 0.00 0.00 0.00 0.00 0.00 0.00 0.00 0.00 0.00 0.01 0.00 0.00 0.00 0.00 0.00 0.00 0.01 0.02 0.04 0.01 0.00 0.00 0.00 0.00 0.00 0.00 0.03 0.03 0.02 0.00 0.00 0.00 0.00 0.00 0.00
0.00 0.00 0.00 0.00 0.00 0.00 0.00 0.00 0.00 0.00 0.00 0.00 0.00 0.00 0.00 0.02 0.02 0.03 0.00 0.00 0.00 0.00 0.00 0.00 0.01 0.01 0.00 0.00 0.00 0.02 0.03 0.00 0.00 0.01 0.04 0.01 0.00 0.00 0.00 0.01 0.00 0.00 0.01
0.00 0.00 0.00 0.00 0.00 0.00 0.00 0.00 0.00 0.00 0.00 0.00 0.00 0.00 0.00 0.02 0.02 0.00 0.00 0.01 0.01 0.00 0.00 0.00 0.00 0.00 0.00 0.00 0.00 0.02 0.01 0.00 0.00 0.00 0.00 0.00 0.00 0.00 0.00 0.00 0.00 0.00 0.01
0.00 0.00 0.00 0.00 0.00 0.00 0.00 0.00 0.00 0.00 0.00 0.03 0.02 0.00 0.00 0.00 0.00 0.00 0.03 0.05 0.01 0.00 0.00 0.00 0.00 0.00 0.00 0.00 0.00 0.02 0.04 0.01 0.00 0.00 0.00 0.00 0.00 0.00 0.00 0.00 0.00 0.00 0.00
0.00 0.00 0.00 0.00 0.00 0.00 0.00 0.00 0.00 0.00 0.08 0.16 0.16 0.00 0.00 0.00 0.00 0.00 0.00 0.00 0.01 0.01 0.01 0.00 0.00 0.00 0.00 0.00 0.00 0.04 0.09 0.09 0.06 0.00 0.00 0.00 0.00 0.00 0.00 0.00 0.00 0.00 0.00
0.00 0.00 0.00 0.00 0.00 0.00 0.00 0.00 0.00 0.00 0.04 0.10 0.08 0.05 0.00 0.00 0.00 0.01 0.00 0.00 0.00 0.05 0.06 0.00 0.00 0.00 0.00 0.00 0.00 0.01 0.01 0.06 0.06 0.00 0.00 0.00 0.00 0.00 0.00 0.00 0.00 0.00 0.00
0.00 0.00 0.00 0.00 0.00 0.00 0.00 0.00 0.00 0.00 0.00 0.01 0.02 0.03 0.00 0.00 0.00 0.00 0.01 0.03 0.00 0.01 0.05 0.00 0.00 0.00 0.00 0.00 0.00 0.00 0.00 0.04 0.03 0.00 0.00 0.00 0.00 0.00 0.00 0.00 0.00 0.00 0.00
0.00 0.00 0.00 0.00 0.00 0.00 0.00 0.01 0.00 0.00 0.00 0.00 0.00 0.00 0.01 0.00 0.00 0.00 0.00 0.00 0.00 0.00 0.02 0.06 0.04 0.00 0.00 0.00 0.00 0.00 0.00 0.01 0.01 0.00 0.00 0.00 0.00 0.00 0.00 0.00 0.00 0.00 0.00
0.00 0.00 0.04 0.02 0.00 0.02 0.04 0.05 0.05 0.01 0.01 0.01 0.01 0.01 0.04 0.00 0.00 0.00 0.00 0.00 0.00 0.00 0.00 0.05 0.10 0.02 0.01 0.00 0.00 0.00 0.00 0.00 0.00 0.00 0.00 0.00 0.00 0.00 0.00 0.00 0.00 0.00 0.00
0.00 0.00 0.00 0.01 0.01 0.00 0.02 0.07 0.09 0.06 0.03 0.05 0.03 0.00 0.00 0.00 0.00 0.00 0.00 0.00 0.00 0.00 0.00 0.09 0.11 0.11 0.01 0.00 0.00 0.00 0.00 0.00 0.00 0.00 0.00 0.00 0.00 0.00 0.00 0.00 0.00 0.00 0.00
0.01 0.00 0.01 0.00 0.00 0.01 0.01 0.04 0.09 0.08 0.03 0.02 0.02 0.00 0.00 0.00 0.00 0.00 0.00 0.00 0.00 0.00 0.00 0.02 0.04 0.12 0.15 0.00 0.00 0.00 0.00 0.00 0.00 0.00 0.00 0.00 0.00 0.00 0.00 0.00 0.00 0.00 0.00
0.01 0.02 0.01 0.01 0.00 0.00 0.00 0.00 0.03 0.05 0.01 0.00 0.00 0.01 0.01 0.00 0.00 0.00 0.00 0.00 0.02 0.00 0.00 0.01 0.03 0.04 0.12 0.03 0.00 0.00 0.00 0.00 0.00 0.00 0.00 0.00 0.00 0.00 0.00 0.02 0.00 0.00 0.00
0.00 0.01 0.05 0.02 0.03 0.02 0.02 0.00 0.02 0.04 0.06 0.04 0.01 0.01 0.03 0.00 0.00 0.00 0.00 0.00 0.00 0.00 0.00 0.00 0.00 0.00 0.01 0.00 0.00 0.00 0.00 0.00 0.00 0.00 0.00 0.03 0.02 0.00 0.01 0.09 0.04 0.00 0.00
0.01 0.00 0.00 0.00 0.02 0.10 0.14 0.08 0.01 0.00 0.00 0.02 0.07 0.15 0.09 0.03 0.01 0.02 0.02 0.00 0.00 0.00 0.00 0.01 0.06 0.03 0.00 0.00 0.00 0.00 0.00 0.00 0.00 0.00 0.00 0.05 0.06 0.02 0.04 0.08 0.15 0.02 0.03
0.00 0.00 0.00 0.00 0.00 0.01 0.18 0.11 0.02 0.02 0.02 0.02 0.09 0.20 0.20 0.18 0.13 0.12 0.02 0.00 0.00 0.00 0.00 0.00 0.00 0.00 0.00 0.00 0.00 0.00 0.00 0.00 0.00 0.00 0.00 0.00 0.03 0.04 0.08 0.12 0.16 0.08 0.12
0.00 0.00 0.00 0.00 0.00 0.00 0.00 0.00 0.00 0.02 0.05 0.07 0.12 0.12 0.16 0.16 0.20 0.09 0.03 0.00 0.00 0.01 0.00 0.00 0.00 0.00 0.00 0.00 0.00 0.00 0.00 0.00 0.00 0.00 0.00 0.01 0.02 0.02 0.02 0.04 0.04 0.05 0.12
0.00 0.00 0.00 0.00 0.00 0.00 0.00 0.00 0.01 0.08 0.07 0.11 0.08 0.10 0.08 0.05 0.14 0.02 0.00 0.00 0.01 0.03 0.00 0.00 0.00 0.00 0.00 0.00 0.00 0.00 0.01 0.07 0.02 0.08 0.00 0.00 0.02 0.01 0.01 0.06 0.09 0.08 0.10
0.00 0.00 0.00 0.00 0.00 0.00 0.00 0.00 0.00 0.05 0.13 0.05 0.01 0.04 0.10 0.06 0.05 0.05 0.07 0.04 0.01 0.00 0.00 0.00 0.00 0.00 0.00 0.00 0.00 0.00 0.00 0.01 0.00 0.02 0.00 0.00 0.00 0.00 0.00 0.02 0.10 0.09 0.08
0.00 0.00 0.00 0.00 0.00 0.00 0.00 0.00 0.00 0.00 0.06 0.12 0.05 0.02 0.05 0.11 0.09 0.05 0.04 0.00 0.00 0.00 0.00 0.01 0.01 0.01 0.06 0.03 0.00 0.00 0.02 0.03 0.03 0.01 0.00 0.00 0.00 0.00 0.00 0.04 0.10 0.04 0.07
0.00 0.00 0.00 0.00 0.00 0.00 0.00 0.00 0.00 0.00 0.00 0.01 0.03 0.01 0.02 0.03 0.01 0.00 0.00 0.00 0.00 0.00 0.01 0.01 0.01 0.06 0.20 0.11 0.02 0.03 0.11 0.08 0.03 0.01 0.00 0.00 0.00 0.00 0.00 0.01 0.00 0.00 0.00
0.00 0.00 0.00 0.00 0.00 0.00 0.00 0.00 0.00 0.00 0.00 0.00 0.00 0.02 0.10 0.03 0.01 0.00 0.00 0.00 0.00 0.00 0.00 0.00 0.04 0.11 0.10 0.04 0.01 0.00 0.00 0.00 0.00 0.00 0.00 0.00 0.00 0.01 0.00 0.01 0.00 0.00 0.05
0.00 0.00 0.00 0.00 0.00 0.00 0.00 0.00 0.00 0.00 0.00 0.00 0.00 0.00 0.00 0.01 0.00 0.01 0.03 0.05 0.07 0.05 0.04 0.00 0.01 0.00 0.02 0.01 0.00 0.00 0.00 0.00 0.00 0.00 0.00 0.00 0.00 0.00 0.00 0.00 0.01 0.02 0.08
0.00 0.00 0.00 0.00 0.00 0.00 0.00 0.00 0.00 0.00 0.00 0.00 0.00 0.00 0.00 0.02 0.04 0.08 0.10 0.13 0.14 0.10 0.05 0.10 0.12 0.04 0.00 0.00 0.00 0.00 0.00 0.00 0.00 0.00 0.00 0.00 0.00 0.00 0.00 0.01 0.02 0.02 0.02
0.00 0.00 0.00 0.00 0.00 0.00 0.00 0.00 0.06 0.08 0.02 0.00 0.00 0.00 0.00 0.00 0.00 0.01 0.02 0.00 0.00 0.00 0.01 0.01 0.01 0.00 0.00 0.00 0.00 0.00 0.00 0.00 0.00 0.00 0.00 0.00 0.00 0.00 0.01 0.00 0.00 0.00 0.00
0.00 0.00 0.00 0.00 0.00 0.01 0.01 0.00 0.12 0.12 0.10 0.02 0.00 0.00 0.00 0.00 0.00 0.00 0.00 0.00 0.00 0.00 0.00 0.00 0.00 0.00 0.00 0.00 0.00 0.00 0.00 0.00 0.00 0.00 0.00 0.00 0.00 0.02 0.04 0.02 0.00 0.01 0.01
MSLP
1012.56 1012.36 1012.46 1013.05 1013.45 1013.86 1014.26 1014.40 1014.53 1014.59 1014.65 1014.66 1014.78 1015.02 1015.20 1015.39 1015.56 1015.67 1015.75 1015.89 1015.99 1016.16 1016.32 1016.49 1016.66 1016.75 1016.88 1017.06 1017.06 1017.15 1017.25 1017.34 1017.44 1017.62 1017.77 1017.93 1018.15 1018.31 1018.46 1018.51 1018.76 1018.99 1019.14
1012.04 1012.44 1012.46 1013.07 1013.43 1013.91 1014.33 1014.64 1014.80 1014.89 1014.99 1015.05 1015.19 1015.34 1015.50 1015.62 1015.69 1015.82 1015.88 1015.95 1016.05 1016.23 1016.41 1016.59 1016.84 1016.96 1017.11 1017.17 1017.36 1017.46 1017.59 1017.61 1017.64 1017.79 1018.03 1018.14 1018.34 1018.58 1018.69 1018.94 1019.10 1019.16 1019.38
1011.92 1012.31 1012.81 1013.10 1013.35 1013.88 1014.36 1014.68 1014.86 1014.98 1015.11 1015.30 1015.47 1015.62 1015.76 1015.81 1015.91 1016.12 1016.18 1016.19 1016.21 1016.36 1016.49 1016.62 1016.89 1016.99 1017.17 1017.35 1017.55 1017.67 1017.86 1017.91 1017.94 1018.06 1018.24 1018.51 1018.61 1018.72 1018.82 1019.02 1019.25 1019.38 1019.54
1011.68 1012.29 1012.67 1013.05 1013.35 1013.93 1014.42 1014.72 1014.87 1015.04 1015.26 1015.46 1015.61 1015.81 1015.96 1016.05 1016.16 1016.18 1016.38 1016.46 1016.41 1016.44 1016.57 1016.70 1016.95 1017.10 1017.27 1017.39 1017.67 1017.87 1018.02 1018.11 1018.21 1018.39 1018.66 1018.71 1018.70 1018.82 1018.96 1019.04 1019.34 1019.52 1019.73
1011.95 1012.18 1012.73 1013.05 1013.37 1013.90 1014.44 1014.76 1014.88 1015.04 1015.38 1015.63 1015.77 1015.87 1016.10 1016.28 1016.42 1016.48 1016.55 1016.63 1016.57 1016.65 1016.74 1016.83 1016.97 1017.24 1017.49 1017.56 1017.79 1017.95 1018.22 1018.33 1018.46 1018.71 1018.92 1019.03 1019.03 1019.08 1019.17 1019.32 1019.42 1019.60 1019.82
1012.30 1012.19 1012.38 1013.02 1013.35 1013.84 1014.36 1014.71 1014.88 1015.10 1015.35 1015.60 1015.96 1016.14 1016.28 1016.50 1016.60 1016.71 1016.78 1016.77 1016.73 1016.85 1016.96 1017.06 1017.18 1017.37 1017.67 1017.86 1018.07 1018.21 1018.36 1018.47 1018.69 1019.01 1019.18 1019.20 1019.30 1019.27 1019.40 1019.56 1019.67 1019.77 1019.93
1012.15 1012.70 1012.57 1012.61 1013.37 1013.88 1014.21 1014.56 1014.84 1015.05 1015.28 1015.56 1015.88 1016.24 1016.33 1016.51 1016.68 1016.77 1016.85 1016.94 1016.94 1016.98 1017.14 1017.28 1017.41 1017.51 1017.79 1017.97 1018.15 1018.36 1018.55 1018.67 1018.87 1019.05 1019.29 1019.40 1019.44 1019.41 1019.44 1019.60 1019.80 1019.93 1020.05
1012.40 1012.66 1013.01 1013.39 1013.33 1013.90 1014.31 1014.59 1014.95 1015.14 1015.26 1015.51 1015.81 1016.18 1016.38 1016.51 1016.68 1016.80 1016.98 1017.10 1017.20 1017.26 1017.29 1017.39 1017.59 1017.71 1017.87 1018.03 1018.19 1018.39 1018.50 1018.53 1018.74 1018.92 1019.09 1019.33 1019.44 1019.51 1019.60 1019.72 1019.81 1019.97 1020.12
1012.74 1012.71 1013.17 1013.30 1013.60 1013.82 1014.23 1014.68 1014.78 1015.19 1015.39 1015.51 1015.75 1015.94 1016.36 1016.60 1016.73 1016.84 1017.02 1017.16 1017.21 1017.29 1017.42 1017.50 1017.61 1017.86 1017.90 1018.01 1018.16 1018.35 1018.45 1018.55 1018.85 1018.99 1019.08 1019.22 1019.37 1019.54 1019.68 1019.84 1019.89 1020.01 1020.14
1012.98 1013.31 1013.43 1013.65 1013.48 1014.06 1014.37 1014.46 1014.95 1014.98 1015.41 1015.58 1015.76 1015.97 1016.24 1016.48 1016.71 1016.85 1016.99 1017.12 1017.21 1017.33 1017.47 1017.46 1017.65 1017.81 1018.02 1018.13 1018.29 1018.33 1018.39 1018.53 1018.79 1018.92 1019.05 1019.19 1019.33 1019.46 1019.58 1019.88 1020.00 1020.09 1020.25
1013.37 1013.65 1013.85 1014.05 1014.14 1014.00 1014.36 1014.70 1014.70 1015.07 1015.22 1015.63 1015.74 1015.86 1016.10 1016.52 1016.66 1016.86 1017.11 1017.22 1017.22 1017.38 1017.40 1017.37 1017.54 1017.75 1017.92 1018.05 1018.20 1018.28 1018.37 1018.72 1018.81 1018.85 1018.98 1019.16 1019.36 1019.40 1019.51 1019.77 1019.96 1020.06 1020.20
1013.90 1014.32 1014.28 1014.08 1014.11 1014.14 1014.14 1014.53 1014.86 1015.18 1015.30 1015.55 1015.83 1016.04 1016.20 1016.42 1016.67 1016.93 1017.13 1017.20 1017.17 1017.31 1017.39 1017.45 1017.56 1017.70 1018.00 1018.20 1018.25 1018.29 1018.55 1018.58 1018.60 1018.67 1018.89 1018.99 1019.12 1019.16 1019.20 1019.50 1019.75 1019.94 1020.06
1014.09 1014.28 1014.33 1014.36 1014.28 1014.30 1014.25 1014.38 1014.83 1015.02 1015.25 1015.52 1015.81 1016.08 1016.34 1016.54 1016.81 1016.88 1017.15 1017.21 1017.20 1017.23 1017.48 1017.58 1017.79 1017.92 1018.04 1018.34 1018.44 1018.41 1018.45 1018.52 1018.56 1018.58 1018.59 1018.71 1018.76 1018.91 1019.01 1019.21 1019.49 1019.69 1019.88
1014.00 1014.13 1014.34 1014.32 1014.77 1014.72 1014.28 1014.17 1014.44 1014.94 1015.23 1015.37 1015.70 1016.23 1016.73 1016.97 1016.99 1017.24 1017.29 1017.20 1017.29 1017.40 1017.61 1017.78 1017.96 1018.13 1018.17 1018.24 1018.45 1018.49 1018.33 1018.29 1018.42 1018.47 1018.51 1018.39 1018.46 1018.65 1018.64 1018.79 1019.02 1019.39 1019.58
1014.00 1014.03 1014.20 1014.34 1014.66 1014.29 1013.86 1013.93 1014.11 1014.59 1015.23 1015.52 1015.55 1016.00 1016.47 1016.89 1017.16 1017.23 1017.41 1017.33 1017.27 1017.41 1017.53 1017.88 1018.15 1018.29 1018.27 1018.31 1018.31 1018.37 1018.27 1018.21 1018.25 1018.29 1018.31 1018.13 1018.11 1018.28 1018.49 1018.64 1018.74 1018.86 1019.26
1013.79 1013.88 1013.97 1014.37 1014.31 1014.43 1013.58 1013.61 1013.75 1014.53 1015.23 1015.54 1015.45 1015.92 1016.27 1016.75 1016.99 1017.16 1017.22 1017.35 1017.16 1017.30 1017.53 1017.80 1018.02 1018.16 1018.20 1018.12 1018.11 1018.09 1018.08 1018.08 1018.10 1018.08 1017.99 1018.12 1018.00 1018.13 1018.35 1018.50 1018.66 1018.67 1018.85
1013.77 1013.73 1013.89 1014.19 1014.19 1014.49 1014.26 1014.27 1014.30 1014.69 1015.18 1015.46 1015.46 1015.59 1016.11 1016.53 1016.69 1016.96 1017.07 1017.10 1017.09 1017.21 1017.49 1017.78 1017.91 1018.04 1018.15 1018.05 1018.00 1017.89 1017.95 1017.91 1017.91 1017.85 1017.82 1017.84 1017.80 1017.76 1017.77 1017.82 1018.09 1018.23 1018.42
1013.86 1013.97 1013.98 1014.05 1014.21 1014.53 1014.54 1014.47 1014.62 1014.87 1014.92 1015.17 1015.47 1015.50 1015.85 1016.21 1016.37 1016.41 1016.58 1016.72 1016.91 1017.34 1017.50 1017.75 1018.01 1018.14 1018.25 1018.18 1017.98 1017.75 1017.76 1017.71 1017.56 1017.64 1017.52 1017.51 1017.41 1017.38 1017.33 1017.29 1017.73 1017.92 1018.11
1013.65 1014.05 1014.41 1014.22 1014.13 1014.21 1014.30 1014.11 1014.16 1014.43 1014.72 1014.89 1015.07 1015.19 1015.40 1015.56 1015.79 1015.81 1016.12 1016.37 1016.76 1017.06 1017.38 1017.68 1017.92 1018.08 1018.06 1017.89 1017.82 1017.50 1017.44 1017.49 1017.35 1017.23 1017.20 1017.17 1017.04 1016.99 1017.04 1017.02 1017.21 1017.50 1017.71
1013.39 1013.84 1014.39 1014.42 1014.24 1014.12 1014.24 1014.19 1014.33 1014.33 1014.42 1014.50 1014.60 1014.79 1015.07 1015.20 1015.42 1015.59 1016.11 1016.27 1016.55 1016.99 1017.21 1017.50 1017.68 1017.71 1017.69 1017.66 1017.49 1017.26 1017.13 1017.19 1017.09 1017.12 1016.91 1016.85 1016.72 1016.73 1016.80 1016.93 1017.23 1017.19 1017.16
1013.07 1013.41 1014.27 1014.65 1014.46 1014.26 1014.34 1014.48 1014.66 1014.55 1014.60 1014.69 1014.63 1014.63 1014.87 1014.99 1015.21 1015.37 1015.72 1016.04 1016.28 1016.58 1016.69 1016.92 1017.16 1017.29 1017.34 1017.35 1017.37 1017.18 1017.35 1017.26 1017.26 1017.20 1016.91 1016.68 1016.53 1016.53 1016.61 1016.78 1017.00 1017.08 1017.09
1012.98 1013.33 1013.74 1013.92 1014.08 1014.21 1014.12 1014.06 1014.27 1014.33 1014.46 1014.69 1014.70 1014.60 1014.54 1014.87 1015.02 1015.25 1015.45 1015.82 1016.07 1016.33 1016.52 1016.65 1016.66 1016.86 1016.73 1016.74 1017.00 1017.16 1017.33 1017.62 1017.48 1017.49 1017.32 1017.05 1016.79 1016.58 1016.54 1016.77 1016.90 1017.00 1017.18
1013.03 1013.44 1013.78 1013.97 1013.77 1014.10 1014.27 1014.42 1014.37 1014.51 1014.52 1014.69 1014.57 1014.63 1014.49 1014.69 1014.90 1015.01 1014.94 1015.21 1015.45 1015.65 1015.90 1016.01 1016.16 1016.25 1016.28 1016.48 1016.57 1016.65 1017.13 1017.33 1017.62 1017.66 1017.52 1017.27 1017.19 1017.13 1017.09 1017.16 1017.22 1017.31 1017.47
1012.73 1013.18 1013.47 1013.66 1013.94 1014.00 1014.32 1014.28 1014.24 1014.29 1014.78 1014.95 1014.73 1014.56 1014.55 1014.25 1014.53 1014.64 1014.72 1014.85 1015.03 1015.18 1015.29 1015.50 1015.80 1015.70 1016.10 1016.29 1016.49 1016.35 1016.44 1016.74 1017.34 1017.84 1017.82 1017.75 1017.63 1017.56 1017.64 1017.51 1017.44 1017.46 1017.69
1013.32 1013.26 1013.18 1013.40 1013.80 1014.16 1014.34 1014.30 1014.39 1014.30 1014.18 1014.64 1014.77 1014.74 1014.63 1014.53 1014.26 1014.29 1014.55 1014.70 1015.00 1015.21 1015.24 1015.39 1015.53 1015.75 1016.06 1016.13 1016.14 1016.20 1016.52 1016.78 1016.91 1017.11 1017.62 1017.99 1017.93 1018.08 1017.89 1017.79 1017.74 1017.77 1017.85
1013.19 1013.13 1012.90 1013.12 1013.57 1013.97 1014.14 1014.30 1014.36 1013.86 1013.91 1013.96 1014.64 1014.81 1014.75 1014.71 1014.67 1014.56 1014.49 1014.57 1014.62 1014.90 1015.15 1015.27 1015.37 1015.54 1015.77 1015.82 1015.94 1015.87 1015.91 1016.24 1016.47 1016.71 1017.24 1017.81 1018.12 1018.41 1018.26 1018.23 1018.16 1018.16 1018.10
Thickness
5769 5771 5771 5765 5760 5755 5751 5751 5750 5751 5751 5753 5752 5750 5749 5749 5748 5749 5751 5752 5753 5753 5753 5753 5753 5752 5751 5751 5752 5752 5753 5753 5753 5752 5752 5750 5749 5749 5747 5747 5745 5743 5743
5778 5772 5769 5764 5759 5754 5751 5748 5747 5747 5748 5748 5748 5748 5747 5747 5748 5747 5749 5751 5753 5753 5753 5753 5752 5752 5751 5751 5750 5750 5751 5752 5752 5752 5751 5750 5749 5748 5747 5746 5745 5744 5742
5780 5773 5768 5763 5760 5755 5751 5749 5747 5746 5746 5746 5745 5746 5746 5746 5746 5745 5746 5749 5752 5752 5753 5753 5752 5752 5752 5751 5750 5750 5749 5750 5750 5749 5750 5750 5749 5749 5749 5747 5745 5744 5742
5785 5776 5771 5766 5761 5755 5750 5748 5748 5747 5746 5745 5744 5744 5744 5744 5744 5745 5745 5747 5749 5751 5753 5754 5752 5752 5753 5753 5751 5750 5750 5750 5749 5749 5749 5750 5750 5750 5750 5750 5747 5745 5743
5783 5779 5772 5767 5762 5755 5750 5748 5748 5747 5745 5743 5743 5743 5743 5743 5743 5743 5744 5745 5748 5749 5751 5753 5753 5752 5752 5752 5751 5751 5750 5750 5750 5750 5749 5750 5750 5750 5750 5749 5748 5747 5745
5780 5780 5775 5767 5762 5757 5751 5747 5747 5746 5745 5743 5742 5741 5741 5741 5741 5742 5743 5746 5748 5748 5748 5750 5752 5753 5751 5751 5750 5751 5751 5751 5750 5749 5749 5749 5749 5750 5749 5748 5748 5747 5744
5778 5772 5774 5771 5762 5757 5754 5749 5747 5746 5745 5743 5741 5739 5740 5739 5740 5741 5743 5744 5746 5746 5747 5748 5750 5751 5751 5750 5751 5751 5751 5752 5752 5751 5750 5749 5748 5749 5750 5749 5747 5746 5745
5773 5770 5766 5764 5763 5756 5753 5750 5745 5744 5745 5744 5741 5739 5739 5739 5739 5740 5742 5742 5743 5745 5746 5747 5747 5749 5750 5751 5752 5752 5752 5754 5754 5754 5753 5752 5750 5749 5749 5749 5748 5747 5746
5766 5767 5761 5760 5760 5757 5753 5751 5747 5742 5741 5742 5741 5740 5738 5738 5738 5739 5740 5741 5743 5744 5746 5747 5748 5747 5749 5751 5753 5753 5754 5754 5753 5753 5753 5754 5753 5750 5749 5749 5749 5748 5747
5769 5759 5755 5753 5755 5752 5750 5750 5747 5745 5740 5739 5739 5740 5739 5738 5740 5740 5740 5741 5742 5743 5744 5746 5748 5748 5748 5750 5751 5753 5754 5754 5754 5754 5754 5754 5753 5752 5751 5749 5749 5749 5747
5765 5758 5750 5747 5746 5748 5745 5744 5747 5745 5742 5739 5738 5738 5739 5739 5740 5740 5739 5739 5740 5741 5742 5745 5746 5748 5749 5749 5750 5751 5751 5752 5753 5754 5755 5754 5752 5752 5751 5750 5749 5748 5747
5757 5750 5746 5743 5743 5744 5746 5742 5743 5744 5744 5740 5737 5736 5737 5739 5739 5739 5738 5739 5740 5740 5742 5744 5746 5746 5747 5748 5749 5750 5751 5752 5753 5755 5755 5754 5753 5753 5754 5752 5750 5749 5748
5757 5751 5746 5742 5740 5740 5743 5744 5742 5742 5744 5741 5739 5737 5735 5735 5736 5737 5738 5739 5740 5740 5741 5742 5744 5746 5747 5746 5748 5749 5750 5752 5752 5754 5754 5755 5755 5754 5754 5753 5751 5749 5748
5760 5755 5747 5742 5731 5729 5737 5743 5745 5743 5742 5744 5742 5737 5733 5732 5733 5734 5735 5739 5740 5740 5739 5740 5741 5742 5743 5744 5745 5747 5750 5751 5752 5753 5754 5755 5755 5754 5755 5755 5753 5749 5748
5761 5758 5750 5740 5725 5727 5739 5744 5746 5745 5739 5739 5740 5737 5735 5733 5732 5732 5734 5736 5739 5740 5739 5737 5737 5738 5740 5742 5743 5744 5748 5749 5750 5751 5752 5754 5753 5754 5753 5752 5751 5748 5748
5766 5760 5755 5744 5736 5732 5746 5746 5748 5744 5739 5737 5739 5735 5734 5733 5732 5732 5733 5734 5737 5738 5737 5736 5736 5736 5738 5742 5744 5744 5746 5747 5748 5750 5752 5751 5751 5751 5751 5750 5749 5748 5748
5767 5765 5759 5753 5746 5741 5742 5743 5743 5742 5739 5737 5738 5739 5735 5733 5733 5733 5733 5734 5735 5736 5735 5734 5735 5736 5737 5740 5743 5744 5744 5746 5747 5748 5750 5751 5751 5752 5752 5753 5751 5749 5748
5770 5766 5763 5759 5753 5746 5744 5742 5739 5737 5737 5737 5736 5737 5736 5735 5735 5735 5736 5737 5735 5732 5733 5733 5732 5733 5733 5736 5740 5744 5744 5745 5747 5747 5749 5750 5752 5753 5754 5754 5750 5748 5747
5775 5768 5760 5757 5755 5751 5746 5744 5742 5740 5737 5737 5736 5738 5737 5737 5737 5740 5737 5738 5737 5734 5733 5733 5732 5731 5733 5736 5739 5743 5745 5744 5745 5748 5750 5751 5752 5753 5752 5753 5750 5748 5746
5779 5771 5762 5759 5758 5755 5749 5745 5743 5742 5739 5737 5737 5737 5737 5736 5737 5738 5734 5735 5735 5733 5733 5733 5731 5733 5735 5736 5739 5743 5745 5745 5745 5747 5750 5751 5751 5750 5750 5749 5746 5746 5745
5785 5778 5764 5757 5757 5756 5750 5743 5739 5738 5736 5734 5735 5736 5735 5737 5736 5736 5735 5735 5734 5734 5735 5735 5735 5735 5735 5737 5736 5739 5740 5742 5743 5744 5747 5748 5749 5749 5749 5746 5743 5743 5742
5785 5779 5771 5766 5761 5756 5752 5748 5744 5741 5736 5732 5732 5734 5736 5735 5735 5735 5735 5735 5735 5735 5734 5736 5737 5734 5737 5739 5735 5734 5732 5734 5738 5739 5741 5742 5744 5745 5745 5742 5740 5740 5738
5781 5776 5769 5763 5762 5755 5750 5743 5741 5738 5735 5731 5731 5731 5732 5732 5733 5734 5736 5737 5738 5738 5736 5737 5738 5737 5734 5736 5738 5735 5727 5727 5729 5732 5735 5737 5737 5738 5737 5735 5735 5734 5732
5782 5778 5770 5764 5759 5755 5749 5743 5741 5737 5730 5727 5730 5730 5730 5733 5732 5734 5736 5736 5737 5738 5738 5738 5737 5738 5735 5729 5733 5738 5738 5735 5726 5721 5727 5727 5728 5729 5728 5728 5728 5728 5726
5771 5772 5773 5764 5757 5751 5745 5741 5738 5736 5736 5731 5727 5727 5727 5730 5732 5733 5732 5733 5734 5734 5736 5736 5736 5735 5733 5732 5733 5735 5733 5732 5732 5728 5719 5718 5720 5719 5720 5721 5721 5720 5719
5769 5772 5773 5765 5755 5748 5744 5738 5735 5738 5736 5733 5726 5724 5725 5725 5724 5725 5729 5731 5733 5733 5732 5733 5734 5734 5733 5733 5733 5735 5734 5731 5730 5728 5722 5717 5711 5710 5713 5713 5714 5713 5713